This is the latest recevied weather packets stored in our database for station/object KW4UJ. If no packets are shown the sender has not sent any weather packets the latest 10 day(s).
| Time | Temp. | Humidity | Pressure | Rain* | Wind** | Luminosity | Snow |
|---|---|---|---|---|---|---|---|
| 1777589204 | 16.11° C | 45% | 1010.4 hPa | 0 mm | - | 31 W/m² | - |
| 1777588900 | 16.11° C | 44% | 1010.1 hPa | 0 mm | - | 32 W/m² | - |
| 1777588596 | 16.67° C | 46% | 1010 hPa | 0 mm | - | 34 W/m² | - |
| 1777588297 | 16.67° C | 45% | 1010 hPa | 0 mm | - | 37 W/m² | - |
| 1777587993 | 17.22° C | 45% | 1010.2 hPa | 0 mm | - | 143 W/m² | - |
| 1777587689 | 17.22° C | 45% | 1010 hPa | 0 mm | - | 156 W/m² | - |
| 1777587389 | 17.78° C | 45% | 1009.9 hPa | 0 mm | - | 166 W/m² | - |
| 1777587085 | 17.78° C | 44% | 1009.9 hPa | 0 mm | - | 182 W/m² | - |
| 1777586781 | 17.78° C | 44% | 1009.8 hPa | 0 mm | - | 198 W/m² | - |
| 1777586476 | 17.78° C | 44% | 1009.7 hPa | 0 mm | - | 204 W/m² | - |
| 1777586172 | 18.33° C | 43% | 1009.5 hPa | 0 mm | - | 80 W/m² | - |
| 1777585869 | 17.78° C | 43% | 1009.5 hPa | 0 mm | - | 238 W/m² | - |
| 1777585564 | 17.78° C | 43% | 1009.3 hPa | 0 mm | - | 251 W/m² | - |
| 1777585261 | 17.22° C | 44% | 1009.1 hPa | 0 mm | - | 119 W/m² | - |
| 1777584955 | 17.22° C | 44% | 1009.3 hPa | 0 mm | - | 58 W/m² | - |
| 1777584653 | 17.78° C | 43% | 1009.1 hPa | 0 mm | - | 211 W/m² | - |
| 1777584350 | 17.78° C | 42% | 1009.1 hPa | 0 mm | - | 95 W/m² | - |
| 1777584046 | 17.78° C | 41% | 1008.9 hPa | 0 mm | - | 83 W/m² | - |
| 1777583746 | 17.78° C | 39% | 1009.1 hPa | 0 mm | - | 98 W/m² | - |
| 1777583445 | 17.78° C | 40% | 1008.9 hPa | 0 mm | - | 90 W/m² | - |
| 1777583145 | 18.33° C | 40% | 1008.8 hPa | 0 mm | - | 113 W/m² | - |
| 1777582841 | 18.33° C | 39% | 1008.5 hPa | 0 mm | - | 149 W/m² | - |
| 1777582538 | 18.33° C | 38% | 1008.5 hPa | 0 mm | - | 155 W/m² | - |
| 1777582233 | 18.33° C | 38% | 1009 hPa | 0 mm | - | 123 W/m² | - |
| 1777581931 | 18.89° C | 37% | 1008.8 hPa | 0 mm | - | 110 W/m² | - |
* Rain latest hour (hover to see other rain measurements)
** Current wind speed in m/s (hover to see current wind gust speed)